Location: Martz Observatory
(42.0083°N, 79.0667°W)
Time: 14:13:50
(UTC-04:00)

Cosmos 1371 Rocket - Pass Details

Date: 26 May 2018
Orbit: 753 x 790 km, 74.0° (Epoch: 16 October)

Event Time Altitude Azimuth Distance (km) Brightness Sun altitude
Rises 01:20:04 0° 341° (NNW) 3,257 8.3 -26.9°
Reaches altitude 10° 01:22:29 10° 343° (NNW) 2,320 7.4 -26.8°
Maximum altitude 01:27:45 78° 70° (ENE) 786 3.9 -26.8°
Enters shadow 01:27:50 77° 83° (E) 787 3.9 -26.8°
